Content
SEND FEEDBACK

Daily
Averages
Monthly
Summary
United States of America

CROMWELL, IOWA


Home > North America > United States > Iowa
Elevation: 1297 feet     Latitude: 41 01N     Longitude: 094 24W

WEATHER
 
SELECT A DAY
Number of Records: 416,641;   Date Range: 4/23/95 - 7/27/14
 
SHARE

PRINT THIS DATA

[ ← Previous Day ]
WEATHER ALMANAC - JANUARY 31, 2013
[ Next Day → ]
[ °C ]   °F
Weather ElementAverageHighLow
Temperature5.8 °F15.8 °F (12:35 am)-2.2 °F (11:56 pm)
Dewpoint-4.2 °F8.6 °F (12:35 am)-11.2 °F (9:36 pm)
Humidity63.8 %79 % (1:15 am)56 % (7:15 am)
Barometer30.11 in30.36 in (11:36 pm)29.88 in (12:35 am)
Wind Speed17.5 mph26.5 mph (1:15 pm)
Wind Gust35.7 mph (2:15 pm)
Weather ElementAverage
Visibility8.8 mi
Wind DirectionWNW (295.7 °)

Weather ElementTotal
Precipitation---
Heating Degree Days58.2 (Base 65)
Averaged from 69 records on January 31, 2013
WEATHER CONDITIONS BREAKOUT
WIND DIRECTION BREAKOUT
WEATHER BY HOUR - JANUARY 31, 2013
[ °C ]   °F
Local TimeTemperatureDewpointHumidityBarometerVisibilityWind DirectionWind SpeedGust SpeedPrecipitationEventsConditions
12:35 AM15.8 °F8.6 °F73 %29.88 in10.0 miWest (270°)10.4 mphSnowLight Snow
12:55 AM14.0 °F6.8 °F73 %29.88 in10.0 miWest (270°)10.4 mphMostly Cloudy
1:15 AM12.2 °F6.8 °F79 %29.88 in10.0 miWest (270°)10.4 mphScattered Clouds
1:35 AM12.2 °F6.8 °F79 %29.88 in10.0 miWest (270°)10.4 mphClear
1:55 AM10.4 °F5.0 °F79 %29.89 in10.0 miWest (270°)8.1 mphClear
2:15 AM10.4 °F5.0 °F79 %29.89 in10.0 miWest (270°)10.4 mphScattered Clouds
2:35 AM8.6 °F3.2 °F79 %29.90 in10.0 miWest (280°)9.2 mphScattered Clouds
2:55 AM8.6 °F3.2 °F79 %29.90 in10.0 miWest (270°)10.4 mphScattered Clouds
3:15 AM8.6 °F3.2 °F79 %29.90 in10.0 miWest (280°)8.1 mphMostly Cloudy
3:35 AM6.8 °F1.4 °F79 %29.90 in10.0 miWest (280°)12.7 mphOvercast
3:55 AM8.6 °F1.4 °F73 %29.90 in10.0 miWNW (290°)13.8 mphMostly Cloudy
4:15 AM8.6 °F1.4 °F73 %29.90 in10.0 miWNW (290°)11.5 mphMostly Cloudy
4:35 AM8.6 °F1.4 °F73 %29.91 in10.0 miWNW (290°)11.5 mphScattered Clouds
4:55 AM8.6 °F1.4 °F73 %29.91 in10.0 miWNW (300°)13.8 mphMostly Cloudy
5:15 AM8.6 °F1.4 °F73 %29.91 in10.0 miWNW (300°)16.1 mph21.9 mphMostly Cloudy
5:35 AM8.6 °F-0.4 °F67 %29.93 in10.0 miWNW (290°)15.0 mphOvercast
5:55 AM6.8 °F-2.2 °F67 %29.93 in10.0 miWNW (300°)24.2 mph32.2 mphOvercast
6:15 AM6.8 °F-2.2 °F67 %29.95 in10.0 miWNW (290°)18.4 mph26.5 mphOvercast
6:35 AM6.8 °F-2.2 °F67 %29.96 in10.0 miWNW (300°)17.3 mphMostly Cloudy
6:55 AM6.8 °F-4.0 °F61 %29.97 in10.0 miWNW (300°)17.3 mph23.0 mphMostly Cloudy
7:15 AM6.8 °F-5.8 °F56 %29.97 in10.0 miWNW (300°)17.3 mphMostly Cloudy
7:35 AM5.0 °F-5.8 °F61 %29.98 in10.0 miWNW (300°)20.7 mphScattered Clouds
7:55 AM6.8 °F-5.8 °F56 %29.99 in10.0 miWNW (300°)16.1 mph24.2 mphMostly Cloudy
8:15 AM6.8 °F-5.8 °F56 %30.00 in10.0 miNW (310°)16.1 mph19.6 mphOvercast
8:35 AM6.8 °F-5.8 °F56 %30.02 in10.0 miNW (310°)13.8 mph20.7 mphOvercast
8:55 AM6.8 °F-5.8 °F56 %30.03 in10.0 miWNW (300°)18.4 mph24.2 mphOvercast
9:15 AM6.8 °F-5.8 °F56 %30.04 in10.0 miNW (310°)20.7 mph25.3 mphScattered Clouds
9:35 AM6.8 °F-5.8 °F56 %30.05 in10.0 miNW (310°)20.7 mph25.3 mphClear
9:55 AM6.8 °F-5.8 °F56 %30.07 in10.0 miWNW (300°)23.0 mph27.6 mphClear
10:15 AM6.8 °F-5.8 °F56 %30.09 in10.0 miWNW (300°)25.3 mph32.2 mphMostly Cloudy
10:35 AM6.8 °F-5.8 °F56 %30.11 in10.0 miWNW (300°)19.6 mph26.5 mphOvercast
10:55 AM6.8 °F-4.0 °F61 %30.12 in10.0 miNW (310°)23.0 mph29.9 mphOvercast
11:15 AM6.8 °F-2.2 °F67 %30.13 in2.5 miNW (310°)21.9 mph28.8 mphHaze
11:35 AM6.8 °F-2.2 °F67 %30.14 in1.8 miNW (310°)21.9 mph31.1 mphHaze
11:55 AM6.8 °F-4.0 °F61 %30.14 in2.0 miNW (320°)24.2 mph33.4 mphHaze
12:15 PM6.8 °F-4.0 °F61 %30.14 in2.0 miNW (310°)21.9 mph31.1 mphHaze
12:35 PM6.8 °F-2.2 °F67 %30.15 in2.0 miNW (310°)20.7 mph28.8 mphHaze
12:55 PM6.8 °F-4.0 °F61 %30.16 in4.0 miWNW (300°)24.2 mph33.4 mphHaze
1:15 PM6.8 °F-4.0 °F61 %30.16 in3.0 miWNW (300°)26.5 mph32.2 mphHaze
1:35 PM6.8 °F-5.8 °F56 %30.17 in4.0 miWNW (300°)23.0 mph33.4 mphHaze
1:55 PM6.8 °F-4.0 °F61 %30.17 in5.0 miWNW (300°)26.5 mph33.4 mphHaze
2:15 PM6.8 °F-5.8 °F56 %30.18 in4.0 miWNW (290°)26.5 mph35.7 mphHaze
2:35 PM6.8 °F-4.0 °F61 %30.19 in7.0 miWNW (300°)23.0 mph32.2 mphOvercast
2:55 PM6.8 °F-5.8 °F56 %30.20 in10.0 miWNW (290°)21.9 mph33.4 mphMostly Cloudy
3:15 PM6.8 °F-5.8 °F56 %30.20 in7.0 miWNW (290°)25.3 mph33.4 mphMostly Cloudy
3:35 PM5.0 °F-5.8 °F61 %30.22 in7.0 miWNW (300°)23.0 mph32.2 mphScattered Clouds
3:55 PM5.0 °F-5.8 °F61 %30.22 in10.0 miWNW (300°)24.2 mph29.9 mphScattered Clouds
4:15 PM5.0 °F-5.8 °F61 %30.23 in7.0 miWNW (300°)24.2 mph32.2 mphClear
4:35 PM3.2 °F-7.6 °F61 %30.24 in10.0 miWNW (300°)20.7 mph32.2 mphClear
4:55 PM3.2 °F-7.6 °F61 %30.24 in10.0 miWNW (300°)24.2 mph27.6 mphClear
5:15 PM3.2 °F-7.6 °F61 %30.25 in10.0 miWNW (300°)19.6 mph25.3 mphClear
5:35 PM3.2 °F-7.6 °F61 %30.26 in10.0 miNW (310°)15.0 mph26.5 mphClear
5:55 PM3.2 °F-7.6 °F61 %30.26 in10.0 miNW (310°)16.1 mphClear
6:15 PM3.2 °F-7.6 °F61 %30.27 in10.0 miWNW (300°)17.3 mph23.0 mphClear
6:35 PM3.2 °F-7.6 °F61 %30.28 in10.0 miWNW (300°)16.1 mphClear
6:55 PM3.2 °F-7.6 °F61 %30.29 in10.0 miWNW (300°)17.3 mphClear
7:15 PM1.4 °F-9.4 °F61 %30.29 in10.0 miWNW (300°)17.3 mphClear
7:35 PM1.4 °F-9.4 °F61 %30.30 in10.0 miWNW (300°)15.0 mphClear
8:15 PM1.4 °F-9.4 °F61 %30.31 in10.0 miWNW (290°)15.0 mphClear
8:35 PM1.4 °F-9.4 °F61 %30.32 in10.0 miWNW (290°)17.3 mph23.0 mphClear
8:55 PM1.4 °F-9.4 °F61 %30.32 in10.0 miWNW (300°)16.1 mph23.0 mphClear
9:36 PM1.4 °F-11.2 °F56 %30.32 in10.0 miNW (310°)15.0 mph19.6 mphClear
9:56 PM-0.4 °F-11.2 °F60 %30.32 in10.0 miWNW (300°)16.1 mphClear
10:16 PM-0.4 °F-11.2 °F60 %30.32 in10.0 miWNW (300°)15.0 mph20.7 mphClear
10:36 PM-0.4 °F-11.2 °F60 %30.34 in10.0 miWNW (290°)16.1 mph20.7 mphClear
10:56 PM-0.4 °F-11.2 °F60 %30.34 in10.0 miWNW (300°)16.1 mphClear
11:16 PM-0.4 °F-11.2 °F60 %30.35 in10.0 miWest (280°)13.8 mphClear
11:36 PM-0.4 °F-11.2 °F60 %30.36 in10.0 miWest (270°)6.9 mphClear
11:56 PM-2.2 °F-11.2 °F66 %30.36 in10.0 miWNW (290°)10.4 mphClear
Hourly data recorded from KCSQ, located miles away from Cromwell, Iowa







STORIES FROM OUR PARTNERS